Epoch 2013 Jan. 28.0 TT = JDT 2456320.5 T 2013 Jan. 28.70988 TT MPCW q 2.8797632 (2000.0) P Q n 0.12191754 Peri. 176.18904 -0.25681582 +0.92800687 a 4.0280229 Node 78.78050 -0.89382609 -0.12184517 e 0.2850678 Incl. 15.97179 -0.36758747 -0.35207528 P 8.08 From 2710 observations 2003 Feb. 1-2015 Feb. 12, mean residual 0".5.
m1 = -17.5 + 5 logΔ + 50 log r(t - 200) [ ,-460] ( 〜2011年10月26日) m1 = 0.0 + 5 logΔ + 25.0 log r(t + 85) [-460, 130] (2011年10月26日〜2013年 6月 7日) m1 = 5.2 + 5 logΔ + 15.0 log r [ 130, ] (2013年 6月 7日〜 )